Location: Helion Bumpstead
(52.0500°N, 0.4000°E)
Time: 08:36:31
(UTC+00:00)

Cosmos 1656 - Pass Details

Date: 15 November 2025
Orbit: 795 x 849 km, 71.1° (Epoch: 14 December)

Event Time Altitude Azimuth Distance (km) Brightness Sun altitude
Exits shadow 06:27:51 - 330° (NNW) 3,281 6.3 -7.9°
Reaches altitude 10° 06:30:00 10° 334° (NNW) 2,477 5.7 -7.6°
Maximum altitude 06:35:39 61° 54° (NE) 966 4.2 -6.8°
Drops below altitude 10° 06:41:16 10° 135° (SE) 2,472 7.5 -6.0°
Sets 06:43:45 0° 139° (SE) 3,403 8.2 -5.6°
